XM-5

Last updated on Tue Jul 01 2025 00:02:45 GMT+0000 (Coordinated Universal Time)

1 37185U 10053A 25181.47365853 -.00000023 00000+0 00000+0 0 9995 2 37185 0.0457 273.2921 0000626 75.0190 345.7893 1.00269963 53951
UTC large
Height (km)
Speed (km/s)
/
Latitude / Longitude
Inclination (degrees)
Orbital Period (minutes)
Azimuth
Elevation
Range (km)
Doppler Factor

Next 0 passes for location: London (51.5072 / 0.1276)

Sorry there are no passes over London.